Total_Precipitation_Accumulation
0.00 0.00 0.01 0.01 0.01 0.01 0.03 0.06 0.09 0.12 0.10 0.12 0.23 0.49 0.69 0.80 1.01 1.05 1.10 1.25 1.36 1.49 1.80 2.18 2.47 3.02 3.61 3.95 4.34 4.50 4.46 4.29 4.02 3.59 3.22 2.95 2.72 2.56 2.31 2.15 2.05 1.96 1.88 1.96
0.01 0.03 0.02 0.01 0.01 0.02 0.04 0.07 0.09 0.14 0.13 0.17 0.32 0.54 0.79 0.81 0.90 0.94 0.87 0.95 1.13 1.48 1.72 2.20 2.44 2.65 3.13 3.64 4.08 4.35 4.48 4.30 3.89 3.43 3.12 2.93 2.89 2.56 2.24 2.19 2.17 2.00 2.03 2.01
0.01 0.02 0.02 0.01 0.02 0.04 0.06 0.07 0.09 0.10 0.12 0.24 0.35 0.72 0.97 0.86 0.83 0.87 0.87 0.94 1.11 1.57 2.01 2.23 2.35 2.48 2.73 3.16 3.46 3.56 3.69 3.63 3.40 3.35 3.21 3.05 3.00 2.64 2.46 2.44 2.40 2.23 2.20 2.14
0.01 0.01 0.02 0.03 0.04 0.04 0.08 0.06 0.05 0.07 0.14 0.33 0.37 0.82 1.25 1.07 0.91 0.95 1.02 0.99 1.28 1.61 1.63 1.71 1.96 2.24 2.47 2.70 3.03 3.27 3.30 3.22 3.08 3.09 2.97 2.76 2.51 2.39 2.48 2.67 2.60 2.33 2.11 1.94
0.03 0.03 0.03 0.04 0.04 0.04 0.06 0.05 0.06 0.09 0.15 0.31 0.39 0.60 1.09 1.12 1.16 1.04 1.01 1.12 1.35 1.37 1.32 1.35 1.55 1.87 1.99 2.27 2.54 2.83 3.08 3.14 3.02 2.98 2.82 2.74 2.56 2.48 2.47 2.40 2.29 2.08 1.85 1.60
0.04 0.04 0.04 0.03 0.03 0.04 0.05 0.06 0.12 0.18 0.31 0.65 0.50 0.51 0.93 1.09 0.99 0.88 0.94 0.98 1.12 1.11 1.15 1.27 1.40 1.65 1.75 1.86 1.96 2.13 2.39 2.62 2.69 2.67 2.58 2.48 2.34 2.25 2.15 1.94 1.75 1.59 1.45 1.25
0.09 0.10 0.08 0.05 0.05 0.06 0.06 0.09 0.39 0.74 0.97 1.02 0.55 0.59 1.04 0.89 0.71 0.72 0.85 0.86 0.81 0.81 0.87 1.08 1.18 1.26 1.38 1.47 1.50 1.63 1.86 2.15 2.22 2.16 2.14 2.12 2.02 1.95 1.82 1.71 1.56 1.38 1.21 1.00
0.16 0.21 0.12 0.07 0.07 0.07 0.08 0.09 0.34 0.62 0.74 0.81 0.66 1.00 1.44 0.95 0.73 0.77 0.78 0.74 0.70 0.68 0.64 0.76 0.96 1.11 1.15 1.18 1.25 1.39 1.63 1.79 1.83 1.73 1.79 1.84 1.78 1.75 1.62 1.62 1.42 1.22 1.08 0.99
0.11 0.11 0.07 0.07 0.10 0.10 0.09 0.08 0.14 0.28 0.36 0.59 0.82 1.10 1.14 0.69 0.61 0.70 0.71 0.68 0.70 0.69 0.62 0.60 0.68 0.83 0.90 0.93 1.01 1.11 1.39 1.59 1.64 1.58 1.62 1.66 1.67 1.58 1.43 1.34 1.23 1.07 1.05 1.01
0.04 0.06 0.08 0.07 0.08 0.10 0.10 0.11 0.16 0.22 0.35 0.57 0.77 1.06 1.18 0.80 0.64 0.48 0.43 0.46 0.41 0.40 0.39 0.37 0.40 0.47 0.58 0.72 0.87 0.98 1.07 1.24 1.35 1.34 1.34 1.36 1.47 1.41 1.30 1.25 1.13 0.96 0.90 0.91
0.04 0.04 0.07 0.08 0.11 0.13 0.13 0.11 0.13 0.17 0.20 0.38 0.76 0.97 0.72 0.57 0.51 0.46 0.41 0.44 0.37 0.30 0.29 0.30 0.35 0.42 0.52 0.59 0.73 0.88 0.93 1.03 1.12 1.14 1.18 1.20 1.19 1.23 1.21 1.11 0.99 0.94 0.92 0.89
0.04 0.04 0.06 0.13 0.18 0.16 0.14 0.11 0.13 0.17 0.17 0.23 0.42 0.61 0.44 0.42 0.44 0.39 0.39 0.42 0.42 0.41 0.37 0.34 0.36 0.45 0.52 0.59 0.67 0.72 0.77 0.86 0.99 1.13 1.29 1.36 1.30 1.24 1.16 1.02 0.94 0.94 0.93 0.90
0.05 0.05 0.10 0.28 0.40 0.26 0.16 0.12 0.12 0.14 0.11 0.18 0.36 0.58 0.36 0.28 0.33 0.44 0.61 0.75 0.59 0.45 0.41 0.38 0.40 0.43 0.46 0.55 0.63 0.62 0.65 0.75 0.89 1.11 1.43 1.58 1.52 1.38 1.20 1.02 0.90 0.86 0.86 0.87
0.08 0.06 0.10 0.29 0.42 0.36 0.26 0.17 0.13 0.11 0.13 0.16 0.23 0.47 0.41 0.35 0.33 0.38 0.46 0.44 0.54 0.51 0.42 0.46 0.44 0.51 0.52 0.53 0.61 0.63 0.67 0.71 0.84 1.01 1.24 1.34 1.25 1.16 1.05 0.90 0.78 0.74 0.75 0.81
0.11 0.08 0.07 0.11 0.21 0.23 0.23 0.22 0.18 0.14 0.12 0.21 0.24 0.33 0.38 0.38 0.46 0.51 0.55 0.55 0.58 0.47 0.37 0.42 0.42 0.46 0.52 0.51 0.58 0.56 0.53 0.51 0.60 0.76 0.86 0.96 0.93 0.87 0.81 0.78 0.74 0.72 0.77 0.79
0.17 0.17 0.14 0.15 0.18 0.23 0.27 0.25 0.18 0.13 0.11 0.15 0.22 0.32 0.34 0.39 0.51 0.50 0.43 0.39 0.39 0.34 0.27 0.28 0.40 0.46 0.44 0.41 0.41 0.36 0.36 0.42 0.51 0.62 0.71 0.83 0.93 0.91 0.82 0.78 0.80 0.77 0.81 0.85
0.22 0.26 0.24 0.23 0.23 0.23 0.33 0.32 0.23 0.14 0.13 0.19 0.30 0.42 0.43 0.30 0.33 0.37 0.36 0.35 0.38 0.36 0.23 0.21 0.27 0.35 0.37 0.38 0.34 0.35 0.38 0.44 0.53 0.64 0.73 0.84 0.94 0.95 0.91 0.85 0.88 0.89 0.95 1.01
0.38 0.39 0.31 0.28 0.39 0.49 0.35 0.28 0.27 0.26 0.24 0.26 0.38 0.38 0.43 0.40 0.40 0.42 0.44 0.39 0.33 0.30 0.24 0.19 0.20 0.24 0.29 0.36 0.39 0.42 0.45 0.54 0.62 0.70 0.81 0.92 1.00 0.99 0.99 1.02 1.07 1.12 1.15 1.18
0.32 0.47 0.45 0.44 0.55 0.48 0.41 0.29 0.30 0.36 0.49 0.49 0.56 0.50 0.44 0.44 0.44 0.44 0.39 0.35 0.35 0.28 0.26 0.25 0.23 0.27 0.35 0.39 0.41 0.53 0.62 0.71 0.79 0.84 0.91 0.99 1.09 1.14 1.17 1.22 1.25 1.28 1.33 1.30
0.32 0.47 0.58 0.55 0.67 0.65 0.55 0.41 0.38 0.49 0.89 0.71 0.63 0.62 0.53 0.51 0.56 0.53 0.48 0.44 0.40 0.33 0.30 0.31 0.30 0.37 0.46 0.53 0.60 0.69 0.77 0.84 0.94 1.00 1.13 1.29 1.43 1.45 1.46 1.55 1.60 1.54 1.47 1.39
0.58 0.66 0.70 0.69 0.73 0.77 0.61 0.55 0.54 0.90 1.17 0.86 0.68 0.64 0.65 0.72 0.70 0.62 0.51 0.49 0.44 0.37 0.37 0.35 0.34 0.42 0.57 0.69 0.79 0.90 1.03 1.13 1.09 1.14 1.29 1.51 1.66 1.73 1.77 1.87 1.88 1.85 1.81 1.78
0.74 0.81 0.80 0.80 0.95 1.08 0.74 0.69 0.99 1.16 0.95 0.94 0.89 0.80 0.77 0.73 0.65 0.55 0.49 0.47 0.43 0.40 0.43 0.43 0.42 0.54 0.69 0.83 0.90 1.02 1.09 1.10 1.12 1.19 1.33 1.47 1.63 1.67 1.74 1.93 1.99 2.02 2.01 1.94
0.73 0.85 0.91 0.99 1.11 1.00 0.78 0.84 0.94 0.97 0.97 0.93 0.94 0.93 0.85 0.81 0.70 0.56 0.45 0.42 0.41 0.40 0.43 0.45 0.50 0.68 0.84 0.99 1.08 1.15 1.09 1.16 1.21 1.28 1.41 1.53 1.62 1.70 1.78 1.82 1.81 1.84 1.91 1.90
0.78 0.73 0.91 1.09 1.15 1.03 0.87 0.74 0.68 0.73 0.78 0.78 0.76 0.80 0.82 0.82 0.75 0.60 0.46 0.38 0.40 0.40 0.36 0.41 0.50 0.62 0.73 0.84 0.94 1.08 1.16 1.24 1.30 1.38 1.42 1.50 1.62 1.65 1.68 1.80 1.88 1.94 2.03 2.09
0.89 0.81 1.01 1.25 1.13 0.92 0.96 0.94 0.84 0.85 0.90 0.87 0.76 0.72 0.76 0.75 0.71 0.58 0.50 0.44 0.40 0.39 0.38 0.42 0.53 0.59 0.66 0.71 0.78 0.87 0.96 1.09 1.19 1.26 1.33 1.39 1.45 1.54 1.62 1.67 1.74 1.75 1.81 1.80
0.84 0.90 1.15 1.35 1.20 1.10 1.07 0.97 0.86 0.90 0.87 0.90 0.90 0.88 0.72 0.64 0.67 0.60 0.53 0.44 0.42 0.42 0.43 0.47 0.51 0.54 0.59 0.64 0.76 0.84 0.93 1.08 1.22 1.32 1.36 1.32 1.31 1.38 1.44 1.49 1.47 1.43 1.35 1.31